Terug naar catalogus

CZ-6A DEB

ActiefSSO
NORAD 56279·DEBRIS·🇨🇳 China

Gelanceerd Nov 11, 2022 vanaf Taiyuan Satellite Launch Center

Loading…

Volgende Passages (komende 24 uur)

TLE

VersSource: Space-Track

Epoch: Sep 14, 2026, 10:07 UTC

1 56279U 22151ACX 26257.42166389  .00000506  00000-0  33067-3 0  9994
2 56279  98.9072 253.2268 0070476 129.4651 231.2780 14.05481794178895

Volg CZ-6A DEB in realtime met AllMySat

Download on the App Store